QPF
0.01 0.01 0.00 0.00 0.00 0.00 0.00 0.00 0.00 0.00 0.00 0.00 0.00 0.00 0.00 0.00 0.00 0.00 0.00 0.00 0.00 0.00 0.00 0.00 0.00 0.01 0.02 0.03 0.02 0.03 0.03 0.03 0.02 0.02 0.03 0.03 0.03 0.02 0.03 0.03 0.03 0.02 0.02
0.00 0.00 0.00 0.00 0.00 0.00 0.00 0.00 0.00 0.00 0.00 0.00 0.00 0.00 0.00 0.00 0.00 0.00 0.00 0.00 0.00 0.00 0.00 0.00 0.01 0.01 0.02 0.03 0.02 0.03 0.05 0.04 0.03 0.03 0.04 0.04 0.03 0.02 0.03 0.04 0.03 0.03 0.02
0.00 0.00 0.00 0.00 0.00 0.00 0.00 0.00 0.00 0.00 0.00 0.00 0.00 0.00 0.00 0.00 0.00 0.00 0.00 0.00 0.00 0.00 0.00 0.00 0.00 0.01 0.01 0.02 0.02 0.02 0.04 0.05 0.04 0.03 0.04 0.04 0.03 0.02 0.03 0.04 0.04 0.04 0.04
0.00 0.00 0.00 0.00 0.00 0.00 0.00 0.00 0.00 0.00 0.00 0.00 0.00 0.00 0.00 0.00 0.00 0.00 0.00 0.00 0.00 0.00 0.00 0.00 0.00 0.01 0.01 0.01 0.01 0.02 0.03 0.03 0.03 0.03 0.03 0.02 0.02 0.02 0.03 0.04 0.05 0.05 0.05
0.00 0.00 0.00 0.00 0.00 0.00 0.00 0.00 0.00 0.00 0.00 0.00 0.00 0.00 0.00 0.00 0.00 0.00 0.00 0.00 0.00 0.00 0.00 0.00 0.00 0.00 0.00 0.00 0.01 0.01 0.01 0.01 0.02 0.03 0.02 0.01 0.02 0.01 0.02 0.03 0.04 0.03 0.02
0.00 0.00 0.00 0.00 0.00 0.00 0.00 0.00 0.00 0.00 0.00 0.00 0.00 0.00 0.00 0.00 0.00 0.00 0.00 0.00 0.00 0.00 0.00 0.00 0.00 0.00 0.00 0.00 0.00 0.01 0.01 0.01 0.01 0.01 0.01 0.01 0.02 0.02 0.03 0.02 0.02 0.02 0.02
0.00 0.00 0.00 0.00 0.00 0.00 0.00 0.00 0.00 0.00 0.00 0.00 0.00 0.00 0.00 0.00 0.00 0.00 0.00 0.00 0.00 0.00 0.00 0.00 0.00 0.00 0.00 0.00 0.00 0.00 0.00 0.00 0.00 0.01 0.02 0.02 0.02 0.03 0.03 0.03 0.03 0.05 0.04
0.00 0.00 0.00 0.00 0.00 0.00 0.00 0.00 0.00 0.00 0.00 0.00 0.00 0.00 0.00 0.00 0.00 0.00 0.00 0.00 0.00 0.00 0.00 0.00 0.00 0.00 0.00 0.00 0.00 0.00 0.00 0.00 0.00 0.01 0.02 0.03 0.03 0.03 0.03 0.03 0.06 0.06 0.03
0.00 0.00 0.00 0.00 0.00 0.00 0.00 0.00 0.00 0.00 0.01 0.01 0.01 0.01 0.00 0.00 0.00 0.00 0.00 0.00 0.00 0.00 0.00 0.00 0.00 0.00 0.00 0.00 0.00 0.00 0.00 0.00 0.00 0.01 0.01 0.01 0.01 0.01 0.01 0.01 0.03 0.03 0.03
0.00 0.00 0.00 0.00 0.00 0.00 0.01 0.01 0.01 0.01 0.02 0.02 0.02 0.01 0.01 0.00 0.00 0.00 0.00 0.00 0.00 0.00 0.00 0.00 0.00 0.00 0.00 0.01 0.00 0.00 0.00 0.00 0.00 0.01 0.01 0.01 0.01 0.01 0.01 0.01 0.02 0.02 0.02
0.00 0.00 0.00 0.00 0.00 0.00 0.01 0.01 0.01 0.02 0.03 0.03 0.02 0.01 0.01 0.00 0.00 0.00 0.00 0.00 0.00 0.00 0.00 0.00 0.00 0.00 0.00 0.00 0.01 0.01 0.01 0.01 0.01 0.01 0.02 0.02 0.02 0.01 0.01 0.01 0.01 0.01 0.02
0.00 0.00 0.00 0.00 0.00 0.00 0.00 0.00 0.00 0.01 0.01 0.01 0.01 0.01 0.00 0.00 0.00 0.00 0.00 0.00 0.00 0.00 0.00 0.00 0.00 0.00 0.00 0.00 0.00 0.00 0.01 0.01 0.01 0.02 0.03 0.04 0.03 0.02 0.01 0.01 0.01 0.01 0.01
0.00 0.00 0.00 0.00 0.00 0.00 0.00 0.00 0.00 0.00 0.00 0.00 0.00 0.00 0.00 0.00 0.00 0.00 0.00 0.00 0.00 0.00 0.00 0.00 0.00 0.00 0.00 0.00 0.00 0.00 0.00 0.00 0.01 0.02 0.02 0.02 0.01 0.01 0.01 0.01 0.01 0.01 0.01
0.00 0.00 0.00 0.00 0.00 0.00 0.00 0.00 0.00 0.00 0.00 0.00 0.00 0.00 0.00 0.00 0.00 0.00 0.00 0.00 0.00 0.00 0.00 0.00 0.00 0.00 0.00 0.00 0.00 0.00 0.00 0.00 0.00 0.00 0.01 0.01 0.00 0.00 0.00 0.00 0.01 0.01 0.01
0.00 0.00 0.00 0.00 0.00 0.00 0.00 0.00 0.00 0.00 0.00 0.00 0.00 0.00 0.00 0.00 0.00 0.00 0.00 0.00 0.00 0.00 0.00 0.00 0.00 0.00 0.00 0.00 0.00 0.00 0.00 0.00 0.00 0.01 0.01 0.01 0.00 0.00 0.00 0.00 0.00 0.01 0.00
0.00 0.00 0.00 0.00 0.00 0.00 0.00 0.00 0.00 0.00 0.00 0.00 0.00 0.00 0.00 0.00 0.00 0.00 0.00 0.00 0.00 0.00 0.00 0.00 0.00 0.00 0.00 0.00 0.00 0.00 0.00 0.01 0.01 0.01 0.01 0.00 0.00 0.00 0.00 0.00 0.00 0.00 0.00
0.00 0.00 0.00 0.00 0.00 0.00 0.00 0.00 0.00 0.00 0.00 0.00 0.00 0.00 0.00 0.00 0.00 0.00 0.00 0.00 0.00 0.00 0.00 0.00 0.00 0.00 0.00 0.01 0.01 0.00 0.00 0.01 0.01 0.01 0.01 0.00 0.00 0.00 0.00 0.00 0.00 0.00 0.00
0.00 0.00 0.00 0.00 0.00 0.00 0.00 0.00 0.00 0.00 0.00 0.00 0.00 0.00 0.00 0.00 0.00 0.00 0.00 0.00 0.00 0.00 0.00 0.00 0.00 0.00 0.00 0.01 0.01 0.00 0.01 0.01 0.00 0.00 0.00 0.00 0.00 0.00 0.00 0.00 0.00 0.00 0.00
0.00 0.00 0.00 0.00 0.00 0.00 0.00 0.01 0.00 0.00 0.00 0.00 0.00 0.00 0.00 0.00 0.00 0.01 0.01 0.01 0.00 0.00 0.00 0.00 0.00 0.00 0.01 0.01 0.01 0.00 0.00 0.00 0.00 0.00 0.00 0.00 0.00 0.00 0.00 0.00 0.00 0.00 0.01
0.00 0.00 0.00 0.00 0.00 0.00 0.00 0.00 0.00 0.00 0.00 0.00 0.00 0.01 0.01 0.00 0.01 0.01 0.02 0.02 0.01 0.00 0.00 0.00 0.00 0.00 0.00 0.00 0.00 0.00 0.00 0.00 0.00 0.00 0.00 0.00 0.00 0.00 0.00 0.00 0.00 0.00 0.01
0.00 0.00 0.00 0.00 0.00 0.00 0.00 0.00 0.00 0.00 0.00 0.00 0.00 0.00 0.01 0.01 0.02 0.01 0.01 0.02 0.02 0.01 0.00 0.00 0.00 0.00 0.00 0.00 0.00 0.00 0.00 0.00 0.00 0.00 0.00 0.00 0.00 0.00 0.00 0.00 0.01 0.01 0.01
0.00 0.00 0.00 0.00 0.00 0.00 0.00 0.00 0.00 0.00 0.00 0.00 0.00 0.01 0.01 0.01 0.01 0.00 0.00 0.01 0.01 0.01 0.01 0.01 0.00 0.00 0.00 0.00 0.00 0.00 0.00 0.00 0.01 0.00 0.00 0.00 0.00 0.00 0.00 0.00 0.01 0.01 0.01
0.00 0.00 0.00 0.00 0.00 0.00 0.00 0.00 0.00 0.00 0.00 0.00 0.00 0.01 0.01 0.01 0.00 0.00 0.00 0.00 0.00 0.01 0.01 0.01 0.00 0.01 0.00 0.00 0.00 0.00 0.01 0.01 0.01 0.01 0.01 0.00 0.00 0.00 0.00 0.01 0.01 0.01 0.01
0.00 0.00 0.00 0.00 0.00 0.00 0.00 0.00 0.00 0.00 0.00 0.00 0.00 0.01 0.01 0.01 0.01 0.00 0.00 0.00 0.00 0.00 0.01 0.01 0.00 0.01 0.01 0.01 0.01 0.01 0.01 0.01 0.01 0.01 0.01 0.01 0.01 0.00 0.00 0.01 0.01 0.01 0.01
0.00 0.00 0.00 0.00 0.00 0.00 0.00 0.00 0.00 0.00 0.00 0.00 0.01 0.01 0.01 0.01 0.01 0.01 0.01 0.01 0.00 0.00 0.00 0.00 0.00 0.01 0.01 0.01 0.02 0.01 0.01 0.01 0.01 0.01 0.01 0.01 0.01 0.01 0.00 0.00 0.00 0.01 0.01
0.00 0.00 0.00 0.00 0.00 0.00 0.00 0.00 0.00 0.00 0.00 0.00 0.01 0.01 0.01 0.01 0.00 0.00 0.01 0.01 0.01 0.00 0.00 0.00 0.00 0.00 0.00 0.00 0.00 0.01 0.01 0.01 0.01 0.01 0.01 0.01 0.01 0.01 0.01 0.00 0.01 0.01 0.01
MSLP
1016.72 1016.79 1016.82 1016.82 1016.81 1016.81 1016.85 1016.95 1017.11 1017.34 1017.60 1017.86 1018.10 1018.29 1018.41 1018.46 1018.44 1018.37 1018.27 1018.15 1018.03 1017.93 1017.84 1017.79 1017.76 1017.76 1017.79 1017.84 1017.91 1018.01 1018.13 1018.26 1018.39 1018.52 1018.63 1018.71 1018.76 1018.77 1018.73 1018.66 1018.57 1018.46 1018.34
1016.89 1017.01 1017.09 1017.12 1017.12 1017.10 1017.10 1017.16 1017.28 1017.48 1017.73 1018.01 1018.28 1018.52 1018.69 1018.79 1018.81 1018.76 1018.66 1018.54 1018.42 1018.31 1018.23 1018.18 1018.16 1018.16 1018.18 1018.22 1018.28 1018.35 1018.44 1018.54 1018.65 1018.76 1018.87 1018.96 1019.02 1019.04 1019.03 1018.98 1018.91 1018.82 1018.72
1016.92 1017.11 1017.25 1017.34 1017.36 1017.35 1017.33 1017.36 1017.46 1017.63 1017.87 1018.15 1018.44 1018.71 1018.92 1019.05 1019.11 1019.08 1019.01 1018.90 1018.79 1018.70 1018.63 1018.59 1018.58 1018.59 1018.62 1018.65 1018.69 1018.74 1018.80 1018.87 1018.96 1019.05 1019.15 1019.24 1019.31 1019.34 1019.34 1019.31 1019.25 1019.18 1019.09
1016.80 1017.06 1017.28 1017.42 1017.50 1017.51 1017.51 1017.53 1017.61 1017.77 1017.99 1018.27 1018.57 1018.85 1019.09 1019.25 1019.32 1019.33 1019.27 1019.19 1019.11 1019.04 1019.00 1018.99 1019.00 1019.03 1019.07 1019.10 1019.13 1019.17 1019.20 1019.25 1019.32 1019.39 1019.48 1019.56 1019.62 1019.66 1019.67 1019.64 1019.59 1019.51 1019.43
1016.54 1016.87 1017.16 1017.38 1017.52 1017.59 1017.62 1017.65 1017.73 1017.88 1018.09 1018.36 1018.65 1018.93 1019.17 1019.35 1019.44 1019.47 1019.44 1019.39 1019.34 1019.30 1019.29 1019.32 1019.36 1019.42 1019.48 1019.52 1019.56 1019.58 1019.61 1019.64 1019.69 1019.75 1019.82 1019.89 1019.95 1019.99 1019.99 1019.95 1019.89 1019.80 1019.71
1016.21 1016.59 1016.95 1017.24 1017.44 1017.57 1017.64 1017.70 1017.79 1017.93 1018.13 1018.39 1018.67 1018.94 1019.17 1019.35 1019.45 1019.49 1019.49 1019.47 1019.45 1019.45 1019.48 1019.54 1019.63 1019.72 1019.80 1019.86 1019.91 1019.94 1019.96 1019.99 1020.02 1020.07 1020.13 1020.19 1020.24 1020.27 1020.26 1020.22 1020.14 1020.03 1019.92
1015.90 1016.31 1016.71 1017.05 1017.30 1017.48 1017.59 1017.68 1017.79 1017.93 1018.13 1018.36 1018.62 1018.87 1019.09 1019.26 1019.36 1019.41 1019.42 1019.43 1019.44 1019.47 1019.55 1019.65 1019.77 1019.89 1020.00 1020.09 1020.15 1020.19 1020.21 1020.23 1020.26 1020.30 1020.35 1020.41 1020.45 1020.47 1020.46 1020.41 1020.32 1020.20 1020.06
1015.69 1016.10 1016.51 1016.87 1017.15 1017.35 1017.50 1017.61 1017.74 1017.89 1018.08 1018.30 1018.54 1018.77 1018.97 1019.11 1019.21 1019.26 1019.29 1019.31 1019.35 1019.42 1019.52 1019.66 1019.81 1019.96 1020.10 1020.20 1020.28 1020.32 1020.34 1020.36 1020.38 1020.42 1020.46 1020.52 1020.56 1020.59 1020.58 1020.52 1020.43 1020.30 1020.16
1015.66 1016.04 1016.42 1016.76 1017.03 1017.24 1017.40 1017.54 1017.68 1017.84 1018.04 1018.25 1018.47 1018.68 1018.86 1018.99 1019.07 1019.12 1019.15 1019.18 1019.24 1019.34 1019.47 1019.64 1019.82 1019.99 1020.14 1020.25 1020.32 1020.36 1020.38 1020.38 1020.39 1020.42 1020.46 1020.51 1020.56 1020.60 1020.61 1020.57 1020.49 1020.38 1020.23
1015.84 1016.16 1016.48 1016.76 1017.01 1017.20 1017.36 1017.51 1017.67 1017.85 1018.05 1018.27 1018.49 1018.68 1018.84 1018.95 1019.02 1019.07 1019.10 1019.15 1019.22 1019.34 1019.49 1019.67 1019.86 1020.04 1020.19 1020.30 1020.36 1020.38 1020.37 1020.35 1020.34 1020.35 1020.38 1020.43 1020.49 1020.55 1020.58 1020.58 1020.53 1020.44 1020.30
1016.24 1016.47 1016.70 1016.91 1017.10 1017.26 1017.42 1017.58 1017.77 1017.97 1018.20 1018.43 1018.65 1018.85 1018.99 1019.10 1019.16 1019.20 1019.23 1019.28 1019.37 1019.50 1019.66 1019.85 1020.04 1020.22 1020.35 1020.43 1020.46 1020.45 1020.40 1020.34 1020.29 1020.27 1020.28 1020.33 1020.39 1020.47 1020.53 1020.57 1020.56 1020.51 1020.40
1016.79 1016.93 1017.06 1017.20 1017.32 1017.46 1017.62 1017.80 1018.02 1018.26 1018.53 1018.79 1019.03 1019.22 1019.37 1019.47 1019.52 1019.56 1019.59 1019.65 1019.74 1019.87 1020.04 1020.23 1020.41 1020.57 1020.67 1020.72 1020.70 1020.64 1020.54 1020.42 1020.32 1020.26 1020.23 1020.26 1020.32 1020.41 1020.50 1020.57 1020.61 1020.59 1020.52
1017.44 1017.50 1017.55 1017.61 1017.69 1017.81 1017.97 1018.18 1018.45 1018.74 1019.05 1019.35 1019.62 1019.83 1019.98 1020.08 1020.13 1020.15 1020.18 1020.23 1020.32 1020.46 1020.62 1020.80 1020.97 1021.10 1021.17 1021.18 1021.11 1020.98 1020.82 1020.64 1020.48 1020.36 1020.29 1020.28 1020.33 1020.41 1020.52 1020.61 1020.68 1020.70 1020.66
1018.14 1018.13 1018.12 1018.14 1018.19 1018.31 1018.49 1018.74 1019.06 1019.41 1019.77 1020.11 1020.40 1020.63 1020.79 1020.88 1020.92 1020.94 1020.96 1021.00 1021.08 1021.21 1021.36 1021.53 1021.67 1021.78 1021.82 1021.77 1021.66 1021.47 1021.25 1021.01 1020.78 1020.60 1020.48 1020.42 1020.44 1020.50 1020.59 1020.69 1020.77 1020.81 1020.78
1018.83 1018.80 1018.76 1018.76 1018.81 1018.94 1019.15 1019.45 1019.82 1020.22 1020.63 1021.00 1021.32 1021.56 1021.71 1021.80 1021.82 1021.83 1021.83 1021.86 1021.93 1022.04 1022.18 1022.33 1022.45 1022.53 1022.54 1022.46 1022.30 1022.07 1021.79 1021.50 1021.22 1020.98 1020.80 1020.69 1020.66 1020.68 1020.74 1020.82 1020.88 1020.90 1020.87
1019.49 1019.46 1019.43 1019.44 1019.51 1019.66 1019.91 1020.25 1020.66 1021.11 1021.55 1021.95 1022.27 1022.51 1022.66 1022.73 1022.74 1022.72 1022.71 1022.72 1022.78 1022.87 1022.99 1023.12 1023.22 1023.28 1023.26 1023.16 1022.97 1022.72 1022.40 1022.07 1021.75 1021.47 1021.24 1021.08 1020.99 1020.95 1020.96 1020.99 1021.00 1020.99 1020.92
1020.10 1020.11 1020.11 1020.15 1020.25 1020.44 1020.72 1021.09 1021.53 1021.99 1022.44 1022.85 1023.17 1023.40 1023.54 1023.59 1023.58 1023.55 1023.51 1023.51 1023.54 1023.61 1023.71 1023.82 1023.91 1023.95 1023.92 1023.81 1023.62 1023.35 1023.03 1022.68 1022.34 1022.02 1021.75 1021.54 1021.39 1021.30 1021.23 1021.19 1021.13 1021.05 1020.92
1020.63 1020.70 1020.76 1020.84 1020.98 1021.20 1021.50 1021.89 1022.33 1022.79 1023.23 1023.62 1023.93 1024.15 1024.27 1024.30 1024.28 1024.23 1024.18 1024.16 1024.18 1024.23 1024.32 1024.41 1024.48 1024.52 1024.48 1024.37 1024.19 1023.93 1023.62 1023.28 1022.93 1022.60 1022.31 1022.06 1021.85 1021.69 1021.54 1021.41 1021.27 1021.10 1020.89
1021.07 1021.22 1021.34 1021.48 1021.65 1021.89 1022.20 1022.58 1023.01 1023.45 1023.86 1024.23 1024.52 1024.71 1024.82 1024.84 1024.82 1024.76 1024.71 1024.68 1024.69 1024.73 1024.80 1024.88 1024.95 1024.97 1024.94 1024.84 1024.67 1024.44 1024.15 1023.83 1023.49 1023.16 1022.86 1022.57 1022.32 1022.08 1021.86 1021.64 1021.41 1021.14 1020.85
1021.40 1021.64 1021.83 1022.02 1022.22 1022.47 1022.78 1023.14 1023.53 1023.94 1024.32 1024.66 1024.92 1025.10 1025.21 1025.24 1025.22 1025.17 1025.13 1025.10 1025.11 1025.14 1025.20 1025.27 1025.32 1025.35 1025.32 1025.23 1025.08 1024.87 1024.60 1024.30 1023.99 1023.66 1023.35 1023.04 1022.74 1022.45 1022.16 1021.86 1021.53 1021.18 1020.80
1021.60 1021.93 1022.20 1022.43 1022.67 1022.93 1023.22 1023.55 1023.91 1024.28 1024.62 1024.93 1025.18 1025.36 1025.47 1025.52 1025.52 1025.50 1025.47 1025.46 1025.47 1025.50 1025.55 1025.60 1025.65 1025.66 1025.63 1025.55 1025.41 1025.21 1024.97 1024.69 1024.38 1024.06 1023.74 1023.41 1023.08 1022.74 1022.39 1022.03 1021.63 1021.21 1020.75
1021.67 1022.09 1022.43 1022.71 1022.98 1023.25 1023.53 1023.84 1024.16 1024.50 1024.82 1025.11 1025.35 1025.54 1025.67 1025.74 1025.77 1025.78 1025.78 1025.78 1025.79 1025.82 1025.86 1025.90 1025.93 1025.92 1025.88 1025.79 1025.65 1025.46 1025.23 1024.95 1024.65 1024.33 1024.00 1023.65 1023.30 1022.93 1022.54 1022.13 1021.69 1021.22 1020.72
1021.63 1022.13 1022.54 1022.88 1023.18 1023.46 1023.74 1024.04 1024.34 1024.66 1024.96 1025.24 1025.49 1025.69 1025.84 1025.94 1026.00 1026.04 1026.06 1026.07 1026.09 1026.11 1026.13 1026.15 1026.15 1026.12 1026.06 1025.96 1025.81 1025.61 1025.36 1025.08 1024.78 1024.45 1024.10 1023.74 1023.37 1022.98 1022.58 1022.15 1021.70 1021.21 1020.70
1021.52 1022.09 1022.56 1022.96 1023.30 1023.61 1023.90 1024.19 1024.49 1024.80 1025.09 1025.37 1025.63 1025.84 1026.01 1026.13 1026.22 1026.27 1026.30 1026.31 1026.32 1026.33 1026.33 1026.31 1026.29 1026.23 1026.14 1026.01 1025.84 1025.63 1025.37 1025.08 1024.76 1024.41 1024.05 1023.68 1023.30 1022.91 1022.51 1022.09 1021.65 1021.19 1020.70
1021.37 1022.01 1022.54 1022.99 1023.38 1023.72 1024.04 1024.34 1024.65 1024.95 1025.24 1025.53 1025.78 1026.00 1026.17 1026.31 1026.40 1026.45 1026.47 1026.47 1026.46 1026.44 1026.40 1026.36 1026.30 1026.21 1026.09 1025.94 1025.75 1025.52 1025.25 1024.94 1024.61 1024.25 1023.88 1023.51 1023.13 1022.75 1022.37 1021.98 1021.58 1021.16 1020.72
1021.24 1021.93 1022.52 1023.02 1023.45 1023.83 1024.17 1024.50 1024.81 1025.12 1025.41 1025.69 1025.94 1026.15 1026.32 1026.44 1026.51 1026.55 1026.54 1026.52 1026.47 1026.41 1026.34 1026.26 1026.16 1026.05 1025.91 1025.74 1025.54 1025.29 1025.02 1024.70 1024.36 1024.01 1023.64 1023.27 1022.91 1022.55 1022.20 1021.86 1021.51 1021.14 1020.75
Thickness
5737 5739 5740 5741 5742 5743 5742 5739 5738 5738 5737 5735 5733 5731 5730 5731 5730 5730 5729 5729 5729 5728 5727 5726 5724 5722 5720 5719 5719 5717 5716 5714 5714 5710 5707 5708 5711 5711 5711 5712 5712 5712 5713
5734 5735 5737 5738 5739 5739 5739 5739 5738 5736 5735 5733 5733 5732 5730 5730 5728 5728 5727 5727 5726 5725 5725 5724 5722 5720 5719 5717 5716 5715 5712 5712 5714 5709 5703 5698 5700 5705 5709 5709 5709 5710 5710
5733 5733 5734 5735 5737 5737 5737 5739 5737 5735 5734 5733 5732 5731 5729 5728 5725 5724 5724 5725 5724 5723 5723 5722 5721 5719 5718 5715 5714 5714 5712 5708 5711 5712 5706 5698 5693 5697 5702 5706 5706 5707 5707
5736 5734 5734 5734 5735 5737 5739 5739 5737 5736 5734 5732 5729 5727 5723 5721 5722 5723 5723 5723 5722 5721 5721 5720 5719 5718 5716 5714 5714 5713 5712 5709 5707 5709 5711 5709 5705 5698 5694 5699 5703 5704 5704
5737 5735 5735 5735 5737 5737 5737 5738 5736 5734 5733 5731 5729 5726 5724 5723 5723 5723 5722 5721 5720 5720 5719 5718 5717 5716 5714 5713 5712 5712 5711 5709 5707 5705 5707 5707 5706 5705 5697 5692 5695 5698 5701
5737 5736 5737 5736 5735 5736 5735 5734 5732 5730 5730 5729 5727 5725 5723 5722 5720 5720 5719 5718 5718 5718 5717 5716 5715 5714 5713 5712 5711 5710 5709 5708 5707 5706 5705 5703 5701 5699 5698 5694 5693 5693 5696
5738 5735 5734 5733 5732 5732 5732 5731 5729 5726 5727 5727 5726 5725 5724 5722 5720 5719 5717 5717 5715 5714 5714 5714 5713 5712 5711 5710 5709 5708 5707 5706 5705 5703 5702 5702 5702 5702 5700 5696 5693 5693 5694
5740 5737 5736 5733 5731 5731 5730 5729 5727 5725 5725 5724 5724 5725 5724 5721 5720 5719 5717 5716 5715 5714 5714 5713 5712 5711 5710 5709 5707 5706 5705 5704 5702 5701 5700 5699 5700 5701 5699 5697 5693 5689 5689
5742 5739 5737 5735 5732 5730 5729 5728 5725 5723 5723 5723 5723 5723 5722 5720 5719 5718 5717 5716 5715 5714 5713 5711 5710 5709 5708 5707 5706 5703 5702 5701 5699 5698 5697 5696 5697 5698 5698 5698 5696 5689 5683
5743 5741 5738 5735 5733 5731 5730 5728 5726 5724 5722 5722 5722 5721 5720 5718 5717 5716 5715 5714 5714 5713 5712 5710 5709 5707 5706 5704 5703 5701 5700 5698 5696 5695 5694 5693 5694 5694 5695 5695 5694 5693 5687
5743 5741 5738 5737 5734 5732 5730 5727 5725 5723 5721 5720 5720 5718 5717 5716 5715 5714 5713 5712 5711 5710 5710 5708 5707 5705 5703 5702 5700 5698 5697 5695 5693 5693 5691 5691 5691 5691 5691 5691 5690 5689 5687
5746 5742 5739 5736 5733 5730 5728 5726 5724 5722 5720 5720 5718 5717 5715 5714 5713 5712 5711 5711 5709 5708 5707 5706 5705 5703 5701 5699 5697 5695 5694 5692 5690 5690 5689 5688 5688 5687 5687 5687 5686 5685 5685
5745 5742 5738 5734 5731 5729 5728 5726 5724 5722 5720 5719 5717 5715 5713 5712 5710 5710 5709 5708 5707 5706 5705 5703 5701 5699 5697 5696 5694 5693 5691 5690 5689 5687 5686 5685 5684 5683 5683 5683 5682 5682 5682
5743 5740 5736 5734 5732 5730 5729 5727 5725 5723 5720 5718 5715 5713 5711 5710 5709 5708 5706 5705 5704 5702 5701 5699 5697 5695 5693 5691 5690 5688 5687 5687 5686 5685 5683 5682 5681 5680 5679 5679 5678 5677 5676
5741 5739 5736 5734 5731 5730 5728 5727 5724 5723 5720 5716 5713 5711 5710 5708 5707 5705 5703 5702 5701 5699 5697 5695 5693 5691 5688 5686 5685 5684 5683 5682 5681 5681 5680 5679 5678 5677 5676 5674 5672 5671 5669
5740 5739 5737 5735 5732 5730 5728 5726 5723 5722 5719 5715 5711 5710 5708 5706 5703 5702 5700 5698 5696 5694 5692 5690 5688 5685 5683 5682 5680 5679 5678 5677 5677 5676 5676 5675 5674 5673 5672 5670 5668 5667 5664
5741 5740 5738 5735 5733 5732 5730 5726 5724 5722 5718 5714 5710 5708 5705 5703 5701 5699 5696 5693 5691 5689 5686 5684 5683 5680 5678 5677 5676 5674 5673 5672 5671 5671 5670 5671 5670 5668 5666 5665 5664 5662 5660
5742 5740 5739 5737 5736 5735 5731 5728 5724 5721 5716 5712 5709 5706 5703 5700 5697 5694 5691 5689 5687 5684 5682 5680 5678 5675 5673 5672 5670 5669 5667 5666 5666 5666 5666 5664 5663 5662 5660 5658 5656 5655 5653
5744 5742 5742 5740 5737 5735 5732 5727 5722 5718 5714 5710 5707 5704 5701 5697 5694 5690 5687 5686 5683 5680 5678 5676 5674 5671 5669 5667 5666 5664 5661 5660 5660 5660 5660 5659 5656 5655 5654 5651 5649 5647 5646
5745 5742 5741 5739 5735 5733 5730 5724 5718 5714 5710 5708 5706 5703 5700 5695 5691 5688 5685 5683 5680 5677 5675 5673 5671 5668 5666 5664 5662 5659 5656 5654 5654 5654 5653 5653 5650 5648 5646 5643 5640 5638 5637
5742 5740 5737 5734 5731 5731 5726 5719 5715 5711 5710 5708 5704 5700 5696 5693 5689 5685 5682 5679 5676 5673 5670 5668 5666 5665 5663 5660 5658 5655 5652 5650 5649 5648 5646 5645 5644 5641 5639 5636 5633 5631 5630
5736 5735 5731 5728 5728 5727 5722 5715 5711 5711 5709 5705 5700 5696 5693 5690 5687 5682 5678 5675 5672 5668 5665 5663 5661 5660 5659 5656 5653 5651 5648 5646 5643 5641 5640 5638 5637 5634 5632 5629 5627 5625 5622
5731 5729 5726 5722 5722 5721 5717 5711 5709 5708 5705 5700 5695 5692 5690 5686 5682 5678 5674 5670 5667 5663 5660 5657 5655 5654 5653 5651 5649 5645 5642 5639 5636 5635 5633 5631 5628 5626 5623 5621 5619 5616 5612
5725 5723 5720 5716 5714 5715 5713 5709 5707 5704 5700 5694 5691 5688 5684 5680 5677 5673 5670 5665 5661 5658 5656 5653 5650 5648 5646 5643 5640 5637 5634 5631 5628 5626 5624 5622 5619 5617 5614 5612 5609 5607 5603
5720 5718 5714 5711 5709 5709 5707 5705 5702 5699 5694 5690 5686 5682 5679 5675 5670 5666 5662 5660 5657 5655 5651 5648 5646 5642 5638 5636 5634 5630 5627 5624 5621 5618 5614 5611 5609 5606 5604 5602 5600 5597 5594
5714 5710 5707 5704 5703 5702 5699 5698 5697 5694 5689 5684 5680 5677 5673 5668 5664 5659 5654 5652 5651 5649 5647 5644 5640 5637 5634 5631 5628 5624 5621 5618 5614 5609 5605 5602 5600 5597 5595 5592 5590 5587 5583